[[{"header":{"parameterUnit":"m.s-1","parameterCategory":1,"la1":30.2991,"la2":30.254,"lo1":-89.0895,"lo2":-89.0444,"dy":0.0017,"dx":0.0017,"nx":28,"ny":28,"refTime":"2026-02-03T03:00:00:Z","depth":0,"parameterNumber":2,"parameterNumberName":"U-component_of_WINDS"},"data":[0,0,0,0,0,0,0,0,0,0,0,0,0,0,0,0,0,0,0,0,0,0,0,0,0,0,0,0,0,0,0,0,0,0,0,0,0,0,0,0,0,0,0,0,0,0,0,0,0,0,0,0,0,0,0,0,0,0,1.4165,1.4167,0,1.4317,1.4319,1.4321,1.4345,1.4344,1.4342,1.4341,1.4497,1.4503,1.4508,0,0,0,0,0,0,0,0,0,0,0,0,0,1.3894,1.3899,1.4165,1.4167,1.4169,1.4317,1.4319,1.4321,1.4345,1.4343,1.4342,1.434,1.4496,1.4502,1.4508,0,0,0,0,0,0,0,0,0,0,0,0,0,1.4026,1.3901,1.4165,1.4199,1.4203,1.4317,1.4319,1.4322,1.4345,1.4343,1.4341,1.4339,1.4493,1.4501,1.4509,1.46,0,0,1.4534,1.4538,0,0,0,0,0,0,0,0,1.4018,1.4036,1.4192,1.4196,1.4202,1.431,1.4281,1.4415,1.4346,1.4291,1.4341,1.4339,1.4437,1.4449,1.4482,1.4607,1.4614,1.4535,1.454,1.4543,1.4546,0,0,0,0,0,0,0,1.4009,1.4029,1.4225,1.4194,1.42,1.4206,1.4222,1.4307,1.4374,1.4296,1.4298,1.4316,1.4439,1.4474,1.4486,1.4616,1.4535,1.4542,1.4547,1.455,1.4822,1.4824,0,0,0,0,0,0,1.3994,1.4022,1.422,1.423,1.4103,1.4212,1.4231,1.4277,1.4373,1.4385,1.4317,1.4316,1.4462,1.4477,1.4492,1.4603,1.4543,1.4551,1.4556,1.482,1.4822,1.4825,0,0,0,0,0,0,1.3988,1.4011,1.4214,1.4126,1.4153,1.4219,1.4271,1.4281,1.4317,1.4389,1.4401,1.4341,1.4461,1.448,1.4573,1.4609,1.4555,1.4562,1.4817,1.4821,1.4824,1.4827,0,0,0,0,0,0,1.398,1.4009,1.4044,1.4127,1.4157,1.4293,1.4274,1.4286,1.4331,1.4331,1.4414,1.4426,1.4461,1.456,1.4581,1.4619,1.4568,1.4814,1.4818,1.4823,1.4824,1.483,1.4836,0,0,0,0,0,1.397,1.404,1.4046,1.407,1.4203,1.4295,1.4312,1.435,1.4334,1.4369,1.4415,1.4424,1.4602,1.457,1.4593,1.4634,1.4812,1.4817,1.4822,1.4821,1.4829,1.4835,0,0,0,0,0,0,1.396,1.4051,1.4059,1.4157,1.4218,1.4298,1.4345,1.4357,1.4423,1.4421,1.4465,1.4484,1.4573,1.4613,1.4576,1.4726,1.4705,1.4716,1.4697,1.4705,1.471,1.4699,1.4575,0,0,0,0,0,1.3969,1.4036,1.4112,1.4191,1.4221,1.4278,1.4319,1.4343,1.4408,1.4434,1.4487,1.4549,1.4619,1.4664,1.4733,1.483,1.4848,1.487,1.4876,1.488,1.4888,1.4942,1.4952,1.4842,1.4842,1.4842,0,0,1.3988,1.4046,1.4086,1.419,1.424,1.4308,1.4299,1.4372,1.4423,1.4445,1.4535,1.4576,1.4648,1.4743,1.4788,1.4779,1.4923,1.4887,1.489,1.4896,1.4948,1.4958,1.4967,1.4846,1.4845,1.4845,0,0,1.4058,1.4109,1.418,1.423,1.4306,1.4343,1.436,1.4439,1.4466,1.4557,1.4575,1.4636,1.4756,1.4807,1.4848,1.4937,1.4946,1.4958,1.4988,1.5039,1.5048,1.5056,1.5086,1.5097,1.4966,1.4966,1.4966,0,1.4073,1.4176,1.4215,1.4287,1.4332,1.4355,1.4427,1.4473,1.4567,1.4598,1.4587,1.4737,1.4788,1.4894,1.4916,1.4949,1.4969,1.4948,1.5044,1.5052,1.506,1.5089,1.5101,1.4967,1.4966,1.4966,1.4966,0,1.419,1.4261,1.431,1.4399,1.445,1.4521,1.4571,1.4617,1.4637,1.4675,1.4766,1.4828,1.4909,1.4936,1.4956,1.5045,1.5037,1.5035,1.5014,1.507,1.5099,1.5111,1.4968,1.4967,1.4967,1.4967,0,0,1.4257,1.4367,1.4384,1.4424,1.4509,1.4565,1.4637,1.4716,1.4755,1.4819,1.488,1.4981,1.4978,1.5025,1.5051,1.5096,1.5161,1.5088,1.5091,1.5099,1.5262,1.5263,1.5275,1.5168,1.5171,1.5173,1.5256,0,1.4336,1.4466,1.4503,1.4612,1.4678,1.47,1.4763,1.4821,1.4859,1.492,1.4961,1.5031,1.5024,1.5052,1.5098,1.5143,1.5194,1.5138,1.5225,1.5228,1.5205,1.5291,1.5292,1.5367,1.5267,1.5269,1.5271,0,1.4446,1.4511,1.4627,1.4702,1.4731,1.4787,1.4861,1.492,1.4987,1.5011,1.5063,1.5084,1.516,1.5136,1.5241,1.5202,1.524,1.5267,1.5271,1.528,1.5252,1.5301,1.5393,1.5403,1.5289,1.5287,1.5286,0,1.4482,1.4599,1.4683,1.4717,1.4807,1.4846,1.4885,1.495,1.4995,1.506,1.5089,1.5163,1.5203,1.5259,1.53,1.5279,1.5401,1.538,1.5422,1.5421,1.5446,1.5444,1.5544,1.5472,1.5472,1.5472,1.5471,0,1.4566,1.4635,1.47,1.4752,1.483,1.4872,1.4948,1.4988,1.5046,1.5105,1.5129,1.5185,1.5235,1.5297,1.533,1.5411,1.5429,1.545,1.5458,1.5448,1.5445,1.5473,1.5468,1.5475,1.5474,1.5474,1.5473,0,1.4619,1.4665,1.4758,1.4836,1.4857,1.4911,1.4978,1.5028,1.5066,1.5141,1.5161,1.5221,1.5295,1.5342,1.5436,1.5458,1.5547,1.5553,1.5524,1.5527,1.5566,1.5561,1.5687,1.5705,1.5622,1.5622,1.5623,0,1.4669,1.4723,1.4806,1.4847,1.4887,1.4954,1.4999,1.5042,1.5089,1.5168,1.5209,1.5285,1.5348,1.5465,1.5517,1.5589,1.5597,1.5636,1.5608,1.5595,1.5596,1.5592,1.5597,1.564,1.5641,1.5641,1.5642,0,1.4752,1.4772,1.4837,1.491,1.4963,1.5022,1.5082,1.5114,1.5167,1.5218,1.5294,1.5343,1.5439,1.5513,1.559,1.5631,1.5645,1.565,1.5664,1.5653,1.5634,1.5644,1.5536,1.5647,1.5646,1.5646,1.5646,1.5646,1.4805,1.4853,1.4919,1.499,1.5039,1.5094,1.5145,1.5189,1.5253,1.5334,1.5356,1.5435,1.55,1.5604,1.5646,1.5709,1.5703,1.5723,1.5728,1.5732,1.5732,1.5624,1.5723,1.5723,1.5723,1.5723,1.5723,0,1.4888,1.4932,1.4996,1.5078,1.5134,1.5143,1.5208,1.5254,1.5324,1.5383,1.5444,1.5531,1.5603,1.566,1.5735,1.5774,1.5782,1.5792,1.5789,1.5798,1.5733,1.5713,1.5783,1.5783,1.5783,1.5783,1.5783,1.5783,1.4938,1.502,1.5048,1.5155,1.5198,1.5275,1.5312,1.5362,1.541,1.5505,1.5565,1.5602,1.5661,1.5739,1.5806,1.5821,1.5846,1.5855,1.5871,1.5809,1.5802,1.5796,1.5778,1.586,1.586,1.593,1.5931,1.5931]},{"header":{"parameterUnit":"m.s-1","parameterCategory":1,"la1":30.2991,"la2":30.254,"lo1":-89.0895,"lo2":-89.0444,"dy":0.0017,"dx":0.0017,"nx":28,"ny":28,"refTime":"2026-02-03T03:00:00:Z","depth":0,"parameterNumber":3,"parameterNumberName":"V-component_of_WINDS"},"data":[0,0,0,0,0,0,0,0,0,0,0,0,0,0,0,0,0,0,0,0,0,0,0,0,0,0,0,0,0,0,0,0,0,0,0,0,0,0,0,0,0,0,0,0,0,0,0,0,0,0,0,0,0,0,0,0,0,0,3.511,3.5111,0,3.5143,3.5143,3.5143,3.5074,3.5072,3.507,3.5068,3.5098,3.5101,3.5104,0,0,0,0,0,0,0,0,0,0,0,0,0,3.4985,3.4988,3.511,3.5111,3.5111,3.5142,3.5143,3.5143,3.5075,3.5072,3.5069,3.5067,3.5097,3.51,3.5104,0,0,0,0,0,0,0,0,0,0,0,0,0,3.5031,3.4989,3.511,3.5081,3.5078,3.5142,3.5143,3.5143,3.5075,3.5072,3.5068,3.5065,3.5096,3.51,3.5104,3.5198,0,0,3.5118,3.512,0,0,0,0,0,0,0,0,3.5028,3.5035,3.5084,3.5083,3.508,3.5101,3.511,3.5162,3.5076,3.5076,3.5068,3.5064,3.5102,3.5105,3.5118,3.5199,3.5201,3.5118,3.5121,3.5123,3.5124,0,0,0,0,0,0,0,3.5025,3.5034,3.5123,3.5085,3.5083,3.5064,3.5067,3.5119,3.5107,3.5076,3.5071,3.5076,3.51,3.5114,3.5119,3.5201,3.5118,3.5122,3.5124,3.5126,3.5359,3.5362,0,0,0,0,0,0,3.5026,3.5031,3.5122,3.5124,3.5046,3.5069,3.5072,3.5098,3.5106,3.5105,3.5079,3.5073,3.5109,3.5114,3.5119,3.5228,3.5122,3.5127,3.5129,3.5355,3.536,3.5363,0,0,0,0,0,0,3.5024,3.5035,3.5121,3.5076,3.5086,3.5075,3.5104,3.51,3.5115,3.5109,3.5106,3.5096,3.5106,3.5113,3.5179,3.5229,3.5128,3.5132,3.5351,3.5357,3.5362,3.5448,0,0,0,0,0,0,3.502,3.5035,3.5071,3.5078,3.5089,3.5181,3.5107,3.5103,3.5123,3.5115,3.5124,3.5123,3.5104,3.5173,3.5183,3.5233,3.5136,3.5346,3.5353,3.536,3.5441,3.5456,3.5469,0,0,0,0,0,3.5016,3.5094,3.5073,3.5084,3.5134,3.5184,3.519,3.5168,3.5127,3.5163,3.5159,3.5122,3.5222,3.518,3.5191,3.5243,3.5343,3.5351,3.5359,3.5435,3.5453,3.5469,0,0,0,0,0,0,3.5092,3.5094,3.5071,3.5154,3.5169,3.5172,3.5217,3.5188,3.5215,3.5206,3.5177,3.518,3.5251,3.5253,3.5207,3.5333,3.5275,3.5286,3.5329,3.5346,3.536,3.5357,3.5139,0,0,0,0,0,3.5119,3.516,3.5159,3.5232,3.5241,3.5228,3.5248,3.523,3.5245,3.5251,3.5251,3.5266,3.53,3.5323,3.5355,3.5441,3.5441,3.5482,3.5496,3.5507,3.5517,3.5561,3.5579,3.539,3.539,3.539,0,0,3.5174,3.518,3.5208,3.5247,3.5257,3.5299,3.5234,3.5281,3.5312,3.5257,3.5319,3.532,3.5335,3.5411,3.5444,3.5415,3.5569,3.5518,3.5527,3.553,3.5571,3.5589,3.5605,3.5395,3.5394,3.5394,0,0,3.5295,3.5305,3.5366,3.5377,3.5393,3.5383,3.5398,3.5405,3.5404,3.5466,3.5426,3.5461,3.5521,3.5533,3.5546,3.5671,3.5638,3.5682,3.5755,3.5799,3.5814,3.5827,3.587,3.5886,3.5692,3.5692,3.5692,0,3.5361,3.5424,3.54,3.5451,3.5468,3.5422,3.5482,3.5494,3.552,3.5532,3.55,3.5573,3.558,3.5657,3.5688,3.5701,3.5716,3.5681,3.5814,3.5826,3.5838,3.5879,3.5896,3.5697,3.5696,3.5696,3.5695,0,3.5504,3.5548,3.5595,3.5621,3.5644,3.57,3.5683,3.5709,3.5688,3.5682,3.5745,3.5751,3.5782,3.5799,3.578,3.5874,3.5855,3.5819,3.576,3.5862,3.59,3.5915,3.5704,3.5703,3.5701,3.57,0,0,3.5674,3.5686,3.5703,3.5714,3.5728,3.5761,3.5814,3.5845,3.5867,3.5886,3.5928,3.598,3.5946,3.5962,3.5943,3.5982,3.6079,3.594,3.594,3.5965,3.6181,3.6208,3.6227,3.6057,3.606,3.6062,3.6179,0,3.5793,3.5885,3.5864,3.5954,3.5993,3.5949,3.5995,3.6007,3.6003,3.6035,3.6029,3.6066,3.6019,3.6028,3.6064,3.6059,3.6121,3.6051,3.6095,3.6097,3.6092,3.6247,3.6275,3.6385,3.6194,3.6197,3.6199,0,3.5945,3.597,3.6064,3.607,3.6086,3.6127,3.6153,3.6185,3.6198,3.6192,3.6209,3.6183,3.6233,3.6175,3.6243,3.6195,3.6212,3.6212,3.6216,3.6219,3.6153,3.6252,3.642,3.6436,3.6222,3.622,3.6218,0,3.6058,3.6115,3.6178,3.6189,3.6199,3.6228,3.6234,3.6243,3.6263,3.6286,3.6298,3.6326,3.6341,3.6363,3.6344,3.6304,3.6415,3.6355,3.641,3.6411,3.6435,3.6434,3.6607,3.6448,3.6448,3.6448,3.6447,0,3.6193,3.6252,3.6229,3.6268,3.6332,3.6307,3.6371,3.6371,3.638,3.6417,3.638,3.6415,3.6389,3.6421,3.6407,3.6465,3.6472,3.6468,3.6463,3.6471,3.6471,3.6481,3.6472,3.6452,3.6451,3.645,3.6449,0,3.6331,3.6318,3.6384,3.6387,3.6389,3.6436,3.6439,3.6474,3.6466,3.6513,3.6523,3.6511,3.6547,3.6531,3.6569,3.6559,3.6634,3.6619,3.6629,3.6625,3.6681,3.6675,3.6866,3.6889,3.6716,3.6717,3.6719,0,3.6417,3.6461,3.647,3.6492,3.65,3.6537,3.6557,3.6534,3.6556,3.6573,3.6606,3.6639,3.6665,3.6725,3.6719,3.6747,3.6733,3.6797,3.6736,3.6742,3.6732,3.6729,3.6733,3.6809,3.6811,3.6813,3.6814,0,3.6572,3.6563,3.6594,3.6622,3.6647,3.6668,3.6686,3.6706,3.6684,3.671,3.6747,3.6767,3.6806,3.6839,3.6864,3.6867,3.6837,3.6833,3.6847,3.6855,3.6859,3.6857,3.6662,3.6829,3.6828,3.6826,3.6826,3.6825,3.6686,3.6722,3.6734,3.6769,3.678,3.6797,3.683,3.6827,3.6857,3.6888,3.6872,3.6915,3.6925,3.6956,3.6964,3.6996,3.697,3.6991,3.6996,3.7001,3.7008,3.6855,3.7,3.7,3.7,3.6999,3.6999,0,3.6837,3.6842,3.6875,3.6901,3.6928,3.6898,3.6916,3.694,3.6978,3.6991,3.7017,3.7059,3.7091,3.7087,3.7116,3.7142,3.7129,3.7151,3.7148,3.7149,3.703,3.7014,3.7161,3.7161,3.7161,3.7161,3.7161,3.7161,3.6919,3.698,3.6972,3.7037,3.7041,3.7083,3.7096,3.7111,3.7121,3.717,3.7196,3.7194,3.72,3.7228,3.7256,3.7254,3.7266,3.7292,3.7285,3.7174,3.7158,3.7142,3.7127,3.7295,3.7296,3.7401,3.7402,3.7403]}]]